[[{"header":{"parameterUnit":"m.s-1","parameterCategory":1,"la1":30.2991,"la2":30.254,"lo1":-89.0895,"lo2":-89.0444,"dy":0.0017,"dx":0.0017,"nx":28,"ny":28,"refTime":"2025-07-08T21:00:00:Z","depth":0,"parameterNumber":2,"parameterNumberName":"U-component_of_WINDS"},"data":[0,0,0,0,0,0,0,0,0,0,0,0,0,0,0,0,0,0,0,0,0,0,0,0,0,0,0,0,0,0,0,0,0,0,0,0,0,0,0,0,0,0,0,0,0,0,0,0,0,0,0,0,0,0,0,0,0,0,2.3914,2.3914,0,2.3986,2.3987,2.3988,2.3975,2.3973,2.3972,2.3971,2.4051,2.4054,2.4057,0,0,0,0,0,0,0,0,0,0,0,0,0,2.377,2.3773,2.3914,2.3915,2.3915,2.3986,2.3987,2.3988,2.3975,2.3973,2.3972,2.397,2.405,2.4054,2.4058,0,0,0,0,0,0,0,0,0,0,0,0,0,2.3837,2.3774,2.3913,2.3917,2.3918,2.3986,2.3987,2.3988,2.3975,2.3973,2.3971,2.3969,2.4048,2.4053,2.4058,2.4128,0,0,2.4073,2.4076,0,0,0,0,0,0,0,0,2.3833,2.3842,2.3916,2.3917,2.3918,2.3969,2.3966,2.4035,2.3976,2.3954,2.3971,2.3968,2.4026,2.4032,2.405,2.4132,2.4135,2.4074,2.4077,2.4079,2.408,0,0,0,0,0,0,0,2.3828,2.3839,2.3942,2.3917,2.3919,2.3917,2.3925,2.3979,2.4,2.3956,2.3955,2.3963,2.4026,2.4046,2.4052,2.4136,2.4074,2.4078,2.4081,2.4083,2.428,2.4282,0,0,0,0,0,0,2.3822,2.3835,2.394,2.3945,2.387,2.3921,2.393,2.3955,2.3999,2.4004,2.3965,2.3962,2.4038,2.4046,2.4055,2.4139,2.4079,2.4084,2.4087,2.4278,2.428,2.4283,0,0,0,0,0,0,2.3819,2.3831,2.3937,2.389,2.3903,2.3926,2.3955,2.3957,2.3977,2.4006,2.401,2.398,2.4037,2.4048,2.411,2.4142,2.4086,2.409,2.4275,2.4278,2.4281,2.4309,0,0,0,0,0,0,2.3814,2.383,2.3855,2.389,2.3906,2.3989,2.3957,2.396,2.3985,2.3982,2.4022,2.4027,2.4036,2.4102,2.4115,2.4148,2.4094,2.4272,2.4276,2.428,2.4305,2.4313,2.4319,0,0,0,0,0,2.3809,2.3861,2.3856,2.3869,2.3937,2.3991,2.4,2.4008,2.3987,2.4014,2.4033,2.4025,2.4137,2.4109,2.4123,2.4158,2.427,2.4275,2.428,2.4302,2.4311,2.4319,0,0,0,0,0,0,2.3831,2.3866,2.3861,2.3925,2.3955,2.3988,2.4021,2.4017,2.4054,2.4051,2.4061,2.407,2.4133,2.4152,2.412,2.4228,2.4201,2.4209,2.4213,2.4222,2.4229,2.4222,2.4099,0,0,0,0,0,2.3843,2.3882,2.3911,2.3965,2.398,2.3998,2.4022,2.4026,2.4057,2.407,2.4094,2.4127,2.4169,2.4197,2.4238,2.4309,2.4318,2.434,2.4347,2.4353,2.4359,2.4398,2.4409,2.4299,2.4299,2.4299,0,0,2.3868,2.3892,2.3916,2.397,2.3993,2.4035,2.4009,2.4054,2.4085,2.4078,2.4137,2.4156,2.4193,2.426,2.4291,2.4278,2.4392,2.4359,2.4363,2.4367,2.4405,2.4415,2.4424,2.4302,2.4302,2.4301,0,0,2.3936,2.3958,2.4005,2.4029,2.4064,2.4076,2.4088,2.4122,2.4134,2.4193,2.4188,2.4227,2.43,2.4327,2.435,2.4429,2.4424,2.4443,2.4479,2.4517,2.4526,2.4533,2.4561,2.4571,2.445,2.445,2.445,0,2.3963,2.4023,2.403,2.4075,2.4099,2.4094,2.4143,2.4166,2.4214,2.4232,2.4216,2.4308,2.4333,2.4406,2.4425,2.4444,2.4459,2.4437,2.4524,2.4532,2.4539,2.4566,2.4576,2.4452,2.4451,2.4451,2.4451,0,2.4055,2.4098,2.4132,2.4176,2.4205,2.4252,2.4267,2.4296,2.4298,2.4312,2.4374,2.4404,2.445,2.4468,2.4471,2.4542,2.4533,2.4521,2.4493,2.4551,2.4576,2.4587,2.4454,2.4454,2.4453,2.4453,0,0,2.4136,2.4184,2.4196,2.4216,2.4256,2.429,2.4338,2.4382,2.4406,2.444,2.4481,2.4543,2.4532,2.4559,2.4565,2.4599,2.4659,2.4583,2.4584,2.4595,2.4739,2.4747,2.4759,2.4657,2.4659,2.4661,2.4736,0,2.4206,2.4287,2.4296,2.437,2.441,2.4406,2.4448,2.4478,2.4493,2.4531,2.4549,2.4592,2.4575,2.4591,2.4624,2.4645,2.4688,2.464,2.4696,2.4698,2.4684,2.4772,2.478,2.485,2.4746,2.4748,2.4749,0,2.4298,2.4332,2.441,2.4444,2.4461,2.4498,2.454,2.4576,2.461,2.4619,2.4649,2.4652,2.4703,2.4675,2.4746,2.4713,2.4737,2.4751,2.4754,2.4758,2.4725,2.4778,2.4872,2.4882,2.4765,2.4763,2.4762,0,2.4347,2.4414,2.4469,2.4487,2.4529,2.4555,2.4574,2.4607,2.4633,2.467,2.4688,2.4731,2.4755,2.479,2.4804,2.4783,2.4875,2.4848,2.4885,2.4884,2.4903,2.4901,2.5001,2.4921,2.4921,2.4921,2.492,0,2.4424,2.4471,2.4492,2.4525,2.4579,2.459,2.4643,2.4662,2.4691,2.4729,2.4731,2.4767,2.4785,2.4825,2.4837,2.4895,2.4906,2.4915,2.4918,2.4914,2.4913,2.4929,2.4924,2.4923,2.4923,2.4922,2.4922,0,2.4487,2.4503,2.4562,2.4597,2.4608,2.4645,2.4676,2.471,2.4726,2.4774,2.4787,2.4812,2.4859,2.4878,2.4936,2.4944,2.501,2.501,2.4997,2.4998,2.5033,2.5029,2.5145,2.5161,2.5072,2.5072,2.5073,0,2.4534,2.457,2.4609,2.4634,2.4653,2.4694,2.472,2.4734,2.4761,2.4804,2.4833,2.488,2.4917,2.4993,2.5018,2.5063,2.5063,2.5101,2.5069,2.5065,2.5062,2.5059,2.5063,2.5106,2.5107,2.5107,2.5108,0,2.4614,2.4621,2.4658,2.4699,2.473,2.4763,2.4795,2.4816,2.4835,2.4867,2.4914,2.4943,2.5002,2.5049,2.5095,2.5117,2.5116,2.5118,2.5129,2.5124,2.5115,2.512,2.5011,2.5115,2.5114,2.5114,2.5113,2.5113,2.467,2.4702,2.4734,2.4776,2.4802,2.4832,2.4865,2.4885,2.4924,2.4972,2.4978,2.5029,2.5065,2.5127,2.5151,2.5192,2.5182,2.5198,2.5201,2.5205,2.5206,2.511,2.5201,2.52,2.52,2.52,2.52,0,2.475,2.4771,2.4809,2.4854,2.4887,2.4883,2.4919,2.4947,2.4991,2.5024,2.5061,2.5116,2.5162,2.519,2.5237,2.5264,2.5265,2.5276,2.5273,2.5278,2.5213,2.5198,2.5274,2.5274,2.5274,2.5274,2.5274,2.5274,2.4795,2.4849,2.4859,2.4927,2.4948,2.4996,2.5017,2.5046,2.5072,2.5132,2.517,2.5188,2.5219,2.5268,2.531,2.5318,2.5334,2.5346,2.5352,2.5291,2.5283,2.5275,2.5262,2.535,2.535,2.5414,2.5415,2.5415]},{"header":{"parameterUnit":"m.s-1","parameterCategory":1,"la1":30.2991,"la2":30.254,"lo1":-89.0895,"lo2":-89.0444,"dy":0.0017,"dx":0.0017,"nx":28,"ny":28,"refTime":"2025-07-08T21:00:00:Z","depth":0,"parameterNumber":3,"parameterNumberName":"V-component_of_WINDS"},"data":[0,0,0,0,0,0,0,0,0,0,0,0,0,0,0,0,0,0,0,0,0,0,0,0,0,0,0,0,0,0,0,0,0,0,0,0,0,0,0,0,0,0,0,0,0,0,0,0,0,0,0,0,0,0,0,0,0,0,4.2352,4.2353,0,4.2432,4.2433,4.2434,4.2466,4.2466,4.2466,4.2466,4.254,4.2542,4.2544,0,0,0,0,0,0,0,0,0,0,0,0,0,4.2219,4.2221,4.2352,4.2353,4.2354,4.2432,4.2433,4.2434,4.2466,4.2466,4.2466,4.2466,4.2539,4.2542,4.2544,0,0,0,0,0,0,0,0,0,0,0,0,0,4.2285,4.2222,4.2352,4.238,4.2383,4.2431,4.2433,4.2434,4.2466,4.2466,4.2466,4.2466,4.2538,4.2541,4.2545,4.2569,0,0,4.2554,4.2556,0,0,0,0,0,0,0,0,4.2282,4.229,4.2375,4.2378,4.2382,4.2439,4.2413,4.2479,4.2466,4.2435,4.2466,4.2466,4.2506,4.2512,4.2527,4.2572,4.2575,4.2554,4.2556,4.2558,4.2559,0,0,0,0,0,0,0,4.2277,4.2287,4.2383,4.2376,4.238,4.2385,4.2395,4.2426,4.247,4.2437,4.244,4.2449,4.2508,4.2524,4.2529,4.2576,4.2554,4.2557,4.2559,4.256,4.2642,4.2642,0,0,0,0,0,0,4.2269,4.2283,4.2381,4.2386,4.233,4.2388,4.2398,4.2421,4.247,4.2478,4.2449,4.2451,4.2519,4.2525,4.2532,4.2562,4.2558,4.2561,4.2563,4.2642,4.2642,4.2642,0,0,0,0,0,0,4.2266,4.2277,4.2378,4.2335,4.2348,4.2391,4.2416,4.2422,4.2439,4.2479,4.2487,4.2458,4.2519,4.2527,4.2559,4.2565,4.2562,4.2565,4.2641,4.2642,4.2642,4.2623,0,0,0,0,0,0,4.2262,4.2276,4.2288,4.2335,4.2351,4.2407,4.2416,4.2424,4.2445,4.2447,4.249,4.2496,4.2519,4.2554,4.2562,4.2569,4.2567,4.2641,4.2641,4.2642,4.2623,4.2623,4.2622,0,0,0,0,0,4.2257,4.2278,4.2289,4.23,4.2367,4.2407,4.2415,4.2443,4.2445,4.2456,4.2482,4.2495,4.2563,4.2557,4.2566,4.2575,4.2641,4.2641,4.2642,4.2624,4.2623,4.2622,0,0,0,0,0,0,4.2229,4.2285,4.2297,4.2335,4.2366,4.2412,4.2427,4.2442,4.2471,4.2472,4.2503,4.2512,4.2541,4.2561,4.2553,4.2599,4.2602,4.2605,4.2585,4.2585,4.2584,4.2579,4.257,0,0,0,0,0,4.2227,4.2258,4.2304,4.2333,4.2348,4.2385,4.2403,4.2422,4.2455,4.2467,4.2495,4.2524,4.2552,4.2569,4.2597,4.2626,4.2634,4.2636,4.2635,4.2634,4.2636,4.2651,4.2651,4.2644,4.2644,4.2644,0,0,4.2224,4.2259,4.2276,4.2328,4.2355,4.2383,4.2396,4.2425,4.2446,4.2471,4.2504,4.2524,4.2558,4.2588,4.2603,4.2606,4.264,4.2635,4.2634,4.2637,4.2651,4.2652,4.2652,4.2645,4.2645,4.2644,0,0,4.2233,4.2263,4.2289,4.2315,4.2356,4.2379,4.2385,4.2429,4.2445,4.2478,4.2497,4.252,4.2567,4.259,4.2608,4.2622,4.2635,4.263,4.2627,4.2641,4.2641,4.2642,4.2646,4.2647,4.2631,4.2631,4.2631,0,4.2223,4.2269,4.23,4.2329,4.235,4.2376,4.2401,4.2424,4.247,4.2482,4.2485,4.2544,4.2569,4.2604,4.2607,4.2621,4.2627,4.2626,4.2639,4.264,4.2641,4.2645,4.2646,4.263,4.2631,4.2631,4.2631,0,4.2254,4.2285,4.2301,4.2347,4.237,4.2396,4.2429,4.2447,4.2463,4.2485,4.2517,4.2547,4.2581,4.259,4.2605,4.2626,4.2627,4.2634,4.2638,4.264,4.2645,4.2646,4.2629,4.263,4.263,4.263,0,0,4.2249,4.2311,4.2316,4.2336,4.2381,4.2405,4.243,4.2465,4.248,4.2509,4.253,4.2569,4.2576,4.2596,4.2613,4.2625,4.2632,4.2631,4.2632,4.2629,4.2655,4.2649,4.2651,4.2641,4.2641,4.2641,4.2652,0,4.2262,4.2314,4.2341,4.238,4.2407,4.243,4.2452,4.2481,4.2501,4.2525,4.2547,4.2574,4.2581,4.2593,4.2606,4.2629,4.2638,4.2628,4.2658,4.2659,4.265,4.2653,4.2648,4.2657,4.2654,4.2654,4.2654,0,4.2287,4.2318,4.236,4.24,4.2412,4.2432,4.2465,4.2489,4.2519,4.2533,4.2555,4.2572,4.2597,4.2598,4.2632,4.2625,4.2638,4.265,4.2651,4.2655,4.2657,4.2657,4.2661,4.2662,4.2657,4.2657,4.2657,0,4.2277,4.233,4.2361,4.2378,4.2426,4.2439,4.2458,4.249,4.2508,4.2535,4.2547,4.2576,4.2592,4.2612,4.2636,4.2635,4.2666,4.267,4.2676,4.2676,4.2682,4.2682,4.2688,4.2691,4.2691,4.2691,4.2691,0,4.229,4.2314,4.2358,4.2377,4.2403,4.2433,4.2457,4.2478,4.2505,4.2527,4.2547,4.2566,4.2596,4.2618,4.2635,4.2659,4.2666,4.2676,4.2681,4.2675,4.2673,4.2684,4.2684,4.2691,4.2691,4.2691,4.2691,0,4.2285,4.2315,4.2351,4.2393,4.2404,4.2421,4.2456,4.2474,4.2495,4.2521,4.2529,4.2561,4.2588,4.2613,4.2648,4.2659,4.2683,4.2689,4.2673,4.2676,4.2681,4.268,4.2694,4.2697,4.2698,4.2698,4.2698,0,4.2291,4.2311,4.2355,4.2372,4.2392,4.2419,4.2438,4.2466,4.2485,4.252,4.2533,4.2561,4.2586,4.2626,4.2651,4.2677,4.2683,4.2686,4.2687,4.268,4.2683,4.2681,4.2683,4.2686,4.2686,4.2686,4.2686,0,4.2299,4.2312,4.2341,4.2374,4.2396,4.2423,4.245,4.2462,4.2494,4.2513,4.2542,4.2561,4.2596,4.2623,4.2652,4.2669,4.2682,4.2685,4.2688,4.2682,4.2672,4.2677,4.2672,4.2685,4.2685,4.2685,4.2685,4.2685,4.2299,4.2317,4.2351,4.2381,4.2404,4.2429,4.2447,4.2471,4.2496,4.2529,4.2543,4.2571,4.2598,4.2638,4.2655,4.2676,4.2679,4.2683,4.2684,4.2684,4.2683,4.2669,4.2681,4.2681,4.2681,4.2681,4.2681,0,4.2307,4.233,4.2358,4.2395,4.2418,4.243,4.246,4.2477,4.2502,4.2528,4.2552,4.2583,4.2609,4.2635,4.2661,4.2672,4.2679,4.2678,4.2678,4.2681,4.2679,4.2674,4.2673,4.2673,4.2673,4.2673,4.2673,4.2673,4.2314,4.2345,4.2362,4.2402,4.2424,4.2454,4.2469,4.2491,4.2511,4.2546,4.2569,4.2586,4.2611,4.2639,4.2662,4.2669,4.2678,4.2675,4.2684,4.2681,4.2682,4.2682,4.2677,4.2677,4.2677,4.2684,4.2684,4.2685]}]]